Simultaneous Nadir Overpasses (SNOs) Predictions

Prediction of SNOs between AURA and NPP Satellite Orbit:

Table of predicted SNOs for the next 14.0 days since TLE Epoch: 6/1/2024
Index Date (AURA) Time (AURA) Lat,Lon (AURA) SZA (AURA ) Date (NPP) Time (NPP) Lat,Lon (NPP) SZA (NPP ) Distance(km) Time Diff (sec)
1 06/03/2024 15:13:45 -80.57, 39.81 111.88 06/03/2024 15:12:31 -80.57, 39.90 111.85 1.84 74
2 06/03/2024 16:03:05 80.63,-151.88 68.00 06/03/2024 16:03:12 80.63,-151.98 68.02 1.90 7
3 06/06/2024 04:58:01 80.58, 13.91 67.83 06/06/2024 04:57:05 80.58, 13.87 67.88 0.89 56
4 06/06/2024 05:47:21 -80.70,-177.12 112.39 06/06/2024 05:47:45 -80.70,-176.98 112.43 2.52 24
5 06/08/2024 18:42:17 -80.63, -11.65 112.47 06/08/2024 18:41:39 -80.63, -11.51 112.46 2.46 38
6 06/08/2024 19:31:38 80.68, 156.60 67.43 06/08/2024 19:32:21 80.68, 156.59 67.41 0.41 43
7 06/11/2024 08:26:32 80.63, -37.64 67.36 06/11/2024 08:26:14 80.63, -37.65 67.37 0.18 18
8 06/11/2024 09:15:53 -80.72, 131.05 112.82 06/11/2024 09:16:55 -80.73, 131.18 112.89 2.44 62



Historial Predications of SNOs between AURA and NPP
